Weather in Neznanovo

Russia / Ryazan Oblast     54°01′33″N   40°06′11″E
temp.,
°C
wind,
m/s
gust,
m/s
humid.,
%
clouds,
%
prec.,
mm/h
press.,
hPa
HPBL,
m
26 july, mon
mon2600:00+15ssw225421 0.0 102311
03:00+16sse115199 0.0 102311
06:00+16sw226225 0.0 102328
09:00+22wsw11474 0.0 1024550
12:00+25wnw23332 0.0 10232342
15:00+26nnw343121 0.0 10222599
18:00+24wnw354551 0.0 1022286
21:00+18nnw22586 0.0 102211
27 july, tue
tue2700:00+19nnw005493 0.0 102311
03:00+16wsw11645 0.0 102311
06:00+18w23615 0.0 102357
09:00+23w335559 0.0 1022459
12:00+27wnw34410 0.0 10212051
15:00+24wsw465255 0.1 1020758
18:00+26sw12430 0.0 1019739
21:00+20sw33655 0.0 101936
28 july, wed
wed2800:00+18nw236660 0.0 101922
03:00+17wnw226425 0.0 101914
06:00+18sw22683 0.0 101857
09:00+25ssw234894 0.0 1017526
12:00+28sw3439100 0.0 10161849
15:00+29sw4536100 0.0 10142423
18:00+20wnw71272100 0.1 1014406
21:00+19ese2273100 0.1 101234
29 july, thu
thu2900:00+20s41168100 0.0 1011347
03:00+19ssw51088100 0.3 1009464
06:00+19wsw5109389 0.4 1008498
09:00+22w6107213 0.4 1008810
12:00+28wnw7104420 0.0 10072095
15:00+27w5845100 0.0 10071128
18:00+27w7104396 0.0 10071438
21:00+22w5126230 0.0 1008285
30 july, fri
fri3000:00+19w48733 0.0 1009141
03:00+18w48730 0.0 1009133
06:00+18w36730 0.0 1010142
09:00+25w45470 0.0 1011634
12:00+29wnw46340 0.0 10112013
15:00+30wnw573333 0.0 10102719
18:00+27w234989 0.0 1010102
21:00+23s11585 0.0 101011